Weather History for Sand Point, AK

Change the Weather History Date:

Monday, November 12, 2012

  Actual Average Record
Temperature  
Mean Temperature 38 °F -  
Max Temperature 42 °F 39 °F 48 °F (1986)
Min Temperature 33 °F 33 °F 24 °F (2005)
Degree Days  
Heating Degree Days 28    
Moisture  
Dew Point 36 °F    
Average Humidity 92    
Maximum Humidity 100    
Minimum Humidity 87    
Precipitation  
Precipitation 0.00 in - - ()
Sea Level Pressure  
Sea Level Pressure 30.06 in    
Wind  
Wind Speed 7 mph (SE)    
Max Wind Speed 14 mph    
Max Gust Speed 20 mph    
Visibility 10 miles    
Events      
Averages and records for this station are not official NWS values.
T = Trace of Precipitation, MM = Missing Value Source: NWS Daily Summary

Daily Weather History Graph

Daily Weather History Graph

Search for Another Location

Airport:

Trip Planner

Search our weather history database for the weather conditions in past years. The results will help you decide how hot, cold, wet, or windy it might be!

Date:

Astronomy

Nov. 12, 2012 Rise Set
Actual Time 9:10 AM AKST 5:40 PM AKST
Civil Twilight 8:30 AM AKST 6:21 PM AKST
Nautical Twilight 7:45 AM AKST 7:06 PM AKST
Astronomical Twilight 7:02 AM AKST 7:49 PM AKST
Moon 7:44 AM AKST (11/12) 4:57 PM AKST (11/12)
Length of Visible Light 9h 51m
Length of Day
8h 30m
Waning Crescent, 2% of the Moon is Illuminated
Nov 12
Waning Crescent
Nov 13
New
Nov 20
First Quarter
Nov 28
Full
Dec 6
Last Quarter

Hourly Weather History & Observations

Time (AKST) Temp. Windchill Dew Point Humidity Pressure Visibility Wind Dir Wind Speed Gust Speed Precip Events Conditions
12:16 AM 37.4 °F 32.1 °F 33.8 °F 87% 30.07 in 10.0 mi WNW 6.9 mph - N/A   Clear
12:36 AM 35.6 °F 27.5 °F 33.8 °F 93% 30.07 in 10.0 mi NNW 11.5 mph - N/A   Clear
12:56 AM 37.4 °F 29.8 °F 33.8 °F 87% 30.08 in 10.0 mi NNW 11.5 mph - N/A   Clear
1:16 AM 37.4 °F 30.8 °F 33.8 °F 87% 30.08 in 10.0 mi NW 9.2 mph - N/A   Clear
1:36 AM 37.4 °F 32.1 °F 33.8 °F 87% 30.09 in 10.0 mi NNW 6.9 mph - N/A   Clear
1:56 AM 37.4 °F 29.8 °F 33.8 °F 87% 30.09 in 10.0 mi North 11.5 mph - N/A   Clear
2:16 AM 37.4 °F 29.8 °F 33.8 °F 87% 30.09 in 10.0 mi North 11.5 mph - N/A   Clear
2:36 AM 37.4 °F 32.1 °F 33.8 °F 87% 30.10 in 10.0 mi NNW 6.9 mph - N/A   Clear
2:56 AM 35.6 °F 29.9 °F 33.8 °F 93% 30.11 in 10.0 mi NW 6.9 mph - N/A   Clear
3:16 AM 35.6 °F 30.7 °F 33.8 °F 93% 30.11 in 10.0 mi WNW 5.8 mph - N/A   Clear
3:36 AM 33.8 °F - 32.0 °F 93% 30.10 in 10.0 mi Calm Calm - N/A   Clear
3:56 AM 33.8 °F 28.6 °F 33.8 °F 100% 30.08 in 10.0 mi North 5.8 mph - N/A   Clear
4:16 AM 35.6 °F 31.7 °F 33.8 °F 93% 30.10 in 10.0 mi NW 4.6 mph - N/A   Clear
4:36 AM 37.4 °F 32.8 °F 33.8 °F 87% 30.09 in 10.0 mi North 5.8 mph - N/A   Clear
4:56 AM 37.4 °F 30.8 °F 33.8 °F 87% 30.07 in 10.0 mi North 9.2 mph - N/A   Clear
5:16 AM 37.4 °F 30.8 °F 33.8 °F 87% 30.08 in 10.0 mi NNW 9.2 mph - N/A   Clear
5:36 AM 37.4 °F 32.1 °F 33.8 °F 87% 30.09 in 10.0 mi North 6.9 mph - N/A   Clear
5:56 AM 35.6 °F 32.8 °F 33.8 °F 93% 30.10 in 10.0 mi ENE 3.5 mph - N/A   Clear
6:16 AM 37.4 °F - 33.8 °F 87% 30.10 in 10.0 mi Calm Calm - N/A   Clear
6:36 AM 35.6 °F 31.7 °F 33.8 °F 93% 30.10 in 10.0 mi East 4.6 mph - N/A   Clear
6:56 AM 35.6 °F 32.8 °F 33.8 °F 93% 30.10 in 10.0 mi ENE 3.5 mph - N/A   Scattered Clouds
7:16 AM 33.8 °F 30.8 °F 33.8 °F 100% 30.10 in 10.0 mi East 3.5 mph - N/A   Scattered Clouds
7:36 AM 33.8 °F - 33.8 °F 100% 30.10 in 10.0 mi Calm Calm - N/A   Scattered Clouds
7:56 AM 33.8 °F - 32.0 °F 93% 30.11 in 10.0 mi Calm Calm - N/A   Scattered Clouds
8:16 AM 33.8 °F - 33.8 °F 100% 30.11 in 10.0 mi Calm Calm - N/A   Scattered Clouds
8:36 AM 35.6 °F 32.8 °F 33.8 °F 93% 30.10 in 10.0 mi WNW 3.5 mph - N/A   Scattered Clouds
8:56 AM 35.6 °F - 33.8 °F 93% 30.11 in 10.0 mi Calm Calm - N/A   Scattered Clouds
9:16 AM 35.6 °F - 33.8 °F 93% 30.11 in 10.0 mi Calm Calm - N/A   Scattered Clouds
9:36 AM 35.6 °F - 33.8 °F 93% 30.12 in 10.0 mi Calm Calm - N/A   Scattered Clouds
9:56 AM 35.6 °F - 33.8 °F 93% 30.12 in 10.0 mi Calm Calm - N/A   Mostly Cloudy
10:16 AM 35.6 °F - 33.8 °F 93% 30.13 in 10.0 mi Calm Calm - N/A   Mostly Cloudy
10:36 AM 35.6 °F - 35.6 °F 100% 30.12 in 10.0 mi Calm Calm - N/A   Mostly Cloudy
10:56 AM 35.6 °F - 33.8 °F 93% 30.11 in 10.0 mi Calm Calm - N/A   Scattered Clouds
11:16 AM 37.4 °F - 35.6 °F 93% 30.12 in 10.0 mi Calm Calm - N/A   Scattered Clouds
11:36 AM 39.2 °F - 35.6 °F 87% 30.11 in 10.0 mi Calm Calm - N/A   Scattered Clouds
11:56 AM 39.2 °F - 35.6 °F 87% 30.12 in 10.0 mi Calm Calm - N/A   Mostly Cloudy
12:16 PM 39.2 °F - 35.6 °F 87% 30.10 in 10.0 mi Calm Calm - N/A   Mostly Cloudy
12:36 PM 39.2 °F 35.0 °F 35.6 °F 87% 30.10 in 10.0 mi SSE 5.8 mph - N/A   Mostly Cloudy
12:56 PM 39.2 °F 34.2 °F 35.6 °F 87% 30.11 in 10.0 mi SSE 6.9 mph - N/A   Mostly Cloudy
1:36 PM 39.2 °F 35.9 °F 35.6 °F 87% 30.11 in 10.0 mi SSE 4.6 mph - N/A   Mostly Cloudy
1:56 PM 39.2 °F 33.0 °F 37.4 °F 93% 30.10 in 10.0 mi SSE 9.2 mph - N/A   Mostly Cloudy
2:16 PM 39.2 °F 32.5 °F 37.4 °F 93% 30.10 in 10.0 mi South 10.4 mph - N/A   Mostly Cloudy
2:36 PM 39.2 °F 32.5 °F 37.4 °F 93% 30.10 in 10.0 mi SSW 10.4 mph - N/A   Mostly Cloudy
2:56 PM 39.2 °F 33.0 °F 37.4 °F 93% 30.09 in 10.0 mi South 9.2 mph - N/A   Mostly Cloudy
3:16 PM 39.2 °F 32.5 °F 37.4 °F 93% 30.09 in 10.0 mi South 10.4 mph - N/A   Mostly Cloudy
3:36 PM 39.2 °F 32.0 °F 37.4 °F 93% 30.09 in 10.0 mi South 11.5 mph - N/A   Mostly Cloudy
3:56 PM 39.2 °F 31.6 °F 37.4 °F 93% 30.08 in 10.0 mi South 12.7 mph - N/A   Overcast
4:16 PM 39.2 °F 31.2 °F 37.4 °F 93% 30.07 in 10.0 mi South 13.8 mph - N/A   Overcast
4:36 PM 39.2 °F 31.6 °F 37.4 °F 93% 30.05 in 10.0 mi SSE 12.7 mph 17.3 mph N/A   Overcast
4:56 PM 39.2 °F 31.2 °F 37.4 °F 93% 30.05 in 10.0 mi SSE 13.8 mph - N/A   Overcast
5:16 PM 39.2 °F 32.0 °F 37.4 °F 93% 30.04 in 10.0 mi SSE 11.5 mph 17.3 mph N/A   Overcast
5:36 PM 39.2 °F 31.6 °F 37.4 °F 93% 30.03 in 10.0 mi SSE 12.7 mph 18.4 mph N/A   Overcast
5:56 PM 39.2 °F 32.0 °F 37.4 °F 93% 30.02 in 10.0 mi SSE 11.5 mph 19.6 mph N/A   Overcast
6:16 PM 39.2 °F 32.0 °F 37.4 °F 93% 30.02 in 10.0 mi SSE 11.5 mph 17.3 mph N/A   Overcast
6:36 PM 39.2 °F 34.2 °F 37.4 °F 93% 30.01 in 10.0 mi SE 6.9 mph - N/A   Overcast
6:56 PM 39.2 °F - 37.4 °F 93% 30.01 in 10.0 mi Calm Calm - N/A   Overcast
7:16 PM 39.2 °F 37.0 °F 37.4 °F 93% 30.00 in 10.0 mi ESE 3.5 mph - N/A   Overcast
7:36 PM 39.2 °F 35.9 °F 39.2 °F 100% 29.99 in 10.0 mi SE 4.6 mph - N/A   Overcast
7:56 PM 39.2 °F 37.0 °F 39.2 °F 100% 29.98 in 10.0 mi SE 3.5 mph - N/A   Overcast
8:16 PM 41.0 °F - 39.2 °F 93% 29.98 in 10.0 mi Calm Calm - N/A   Overcast
8:36 PM 41.0 °F 37.1 °F 39.2 °F 93% 29.97 in 10.0 mi SE 5.8 mph - N/A   Overcast
8:56 PM 41.0 °F 38.0 °F 39.2 °F 93% 29.95 in 10.0 mi NE 4.6 mph - N/A   Overcast
9:16 PM 41.0 °F 37.1 °F 39.2 °F 93% 29.95 in 10.0 mi SE 5.8 mph - N/A   Overcast
9:36 PM 42.8 °F 39.3 °F 39.2 °F 87% 29.93 in 10.0 mi SE 5.8 mph - N/A   Overcast
9:56 PM 42.8 °F 37.5 °F 39.2 °F 87% 29.91 in 10.0 mi SE 9.2 mph - N/A   Overcast
10:16 PM 42.8 °F 37.5 °F 39.2 °F 87% 29.91 in 10.0 mi SE 9.2 mph - N/A   Overcast
10:36 PM 42.8 °F 38.0 °F 39.2 °F 87% 29.90 in 10.0 mi SE 8.1 mph - N/A   Overcast
10:56 PM 42.8 °F 37.5 °F 41.0 °F 93% 29.89 in 10.0 mi SE 9.2 mph - N/A   Overcast
11:16 PM 42.8 °F 36.6 °F 41.0 °F 93% 29.88 in 10.0 mi SE 11.5 mph 17.3 mph N/A   Overcast
11:36 PM 42.8 °F 37.5 °F 41.0 °F 93% 29.87 in 10.0 mi SE 9.2 mph - N/A   Overcast
11:56 PM 42.8 °F 37.0 °F 42.8 °F 100% 29.86 in 4.0 mi SE 10.4 mph 17.3 mph N/A   Overcast